This is the latest recevied weather packets stored in our database for station/object KD4EG. If no packets are shown the sender has not sent any weather packets the latest 10 day(s).
| Time | Temp. | Humidity | Pressure | Rain* | Wind** | Luminosity | Snow |
|---|---|---|---|---|---|---|---|
| 1788445816 | 30° C | 68% | 1021.4 hPa | 0 mm | - | 513 W/m² | - |
| 1788445511 | 30° C | 69% | 1021.5 hPa | 0 mm | - | 482 W/m² | - |
| 1788445208 | 30° C | 69% | 1021.2 hPa | 0 mm | - | 429 W/m² | - |
| 1788444903 | 29.44° C | 70% | 1021.4 hPa | 0 mm | - | 481 W/m² | - |
| 1788444598 | 28.89° C | 71% | 1021.4 hPa | 0 mm | - | 510 W/m² | - |
| 1788444294 | 28.89° C | 71% | 1021.6 hPa | 0 mm | - | 450 W/m² | - |
| 1788443989 | 28.89° C | 72% | 1021.6 hPa | 0 mm | - | 416 W/m² | - |
| 1788443685 | 28.33° C | 73% | 1021.4 hPa | 0 mm | - | 403 W/m² | - |
| 1788443385 | 27.78° C | 73% | 1021.3 hPa | 0 mm | - | 385 W/m² | - |
| 1788443084 | 27.78° C | 74% | 1021.4 hPa | 0 mm | - | 375 W/m² | - |
| 1788442781 | 27.78° C | 75% | 1021.5 hPa | 0 mm | - | 356 W/m² | - |
| 1788442477 | 27.78° C | 75% | 1021.5 hPa | 0 mm | - | 351 W/m² | - |
| 1788442172 | 27.22° C | 76% | 1021.6 hPa | 0 mm | - | 329 W/m² | - |
| 1788441868 | 27.22° C | 77% | 1021.6 hPa | 0 mm | - | 299 W/m² | - |
| 1788441568 | 26.67° C | 78% | 1021.6 hPa | 0 mm | - | 288 W/m² | - |
| 1788441263 | 26.67° C | 79% | 1021.7 hPa | 0 mm | - | 272 W/m² | - |
| 1788440961 | 26.67° C | 79% | 1022 hPa | 0 mm | - | 261 W/m² | - |
| 1788440657 | 26.11° C | 80% | 1022 hPa | 0 mm | - | 232 W/m² | - |
| 1788440355 | 26.11° C | 81% | 1021.8 hPa | 0 mm | - | 222 W/m² | - |
| 1788440050 | 25.56° C | 82% | 1021.7 hPa | 0 mm | - | 216 W/m² | - |
| 1788439749 | 25.56° C | 82% | 1021.9 hPa | 0 mm | - | 203 W/m² | - |
| 1788439473 | 25° C | 84% | 1022 hPa | 0 mm | - | 187 W/m² | - |
| 1788439144 | 25° C | 84% | 1022.2 hPa | 0 mm | - | 52 W/m² | - |
| 1788438838 | 24.44° C | 85% | 1022.2 hPa | 0 mm | - | 163 W/m² | - |
| 1788438537 | 24.44° C | 85% | 1022.2 hPa | 0 mm | - | 53 W/m² | - |
* Rain latest hour (hover to see other rain measurements)
** Current wind speed in m/s (hover to see current wind gust speed)